Regional Weather Roundup
Issued by NWS

Home | Current Version | Previous Version | Text Only | Print | Product List | Glossary Off
Versions: 1 2 3 4 5 6 7 8 9 10 11 12 13 14 15 16 17 18 19 20 21 22 23 24 25 26 27 28 29 30 31 32 33 34 35 36 37 38 39 40 41 42 43 44 45 46 47 48 49 50

000
ASUS43 KLOT 020002
RWRIL

ILLINOIS REGIONAL WEATHER ROUNDUP
NATIONAL WEATHER SERVICE CHICAGO/ROMEOVILLE IL
700 PM CDT MON JUN 01 2015

NOTE: "FAIR" INDICATES FEW OR NO CLOUDS BELOW 12,000 FEET WITH NO
SIGNIFICANT WEATHER AND/OR OBSTRUCTIONS TO VISIBILITY.

* THESE STATIONS ARE NOT UNDER NWS QUALITY CONTROL. THEY ALSO MAY NOT
  REPORT WEATHER SUCH AS PRECIPITATION OR FOG.

ILZ001-002-007-009-015-016-024-020100-
NORTHWEST ILLINOIS

CITY           SKY/WX    TMP DP  RH WIND       PRES   REMARKS
MOLINE         CLOUDY    68  50  52 E5        30.14S
6HR MIN TEMP:  66; 6HR MAX TEMP:  72;

STERLING*      SUNNY     66  45  45 E10       30.16S
$$

ILZ003-004-008-010-011-017-018-020100-
NORTH CENTRAL ILLINOIS

CITY           SKY/WX    TMP DP  RH WIND       PRES   REMARKS
ROCKFORD       MOSUNNY   63  39  41 E9        30.20R
6HR MIN TEMP:  63; 6HR MAX TEMP:  68;

$$

ILZ005-006-012>014-019>023-020100-
NORTHEAST ILLINOIS

CITY           SKY/WX    TMP DP  RH WIND       PRES   REMARKS
CHICAGO-OHARE  MOSUNNY   56  34  43 NE13      30.21R
6HR MIN TEMP:  56; 6HR MAX TEMP:  60;

CHICAGO-MIDWAY MOSUNNY   58  35  42 NE16      30.20R
6HR MIN TEMP:  58; 6HR MAX TEMP:  62;

AURORA         SUNNY     62  42  47 E10       30.20R
6HR MIN TEMP:  61; 6HR MAX TEMP:  66;

WAUKEGAN       SUNNY     52  34  50 N13G18    30.21S
6HR MIN TEMP:  52; 6HR MAX TEMP:  56;

DUPAGE AIRPORT SUNNY     59  40  49 NE12      30.20R
6HR MIN TEMP:  59; 6HR MAX TEMP:  63;

WHEELING       SUNNY     54  34  46 NE10      30.23R
6HR MIN TEMP:  54; 6HR MAX TEMP:  58;

NORTHERLY ISL    N/A     51  39  63 N12         N/A
$$

LMZ740>746-020100-
SOUTHERN LAKE MICHIGAN

STATION/POSITION SKY/WX   TEMP    WIND        PRES    VSBY  WAVE
                          AIR SEA DIR/SP/G                  HT/PER
                          (F)     (DEG/KT/KT) (MB)    (MI)  (FT/S)
SOUTHERN BUOY              42 38  350/ 12/ 14 1023.3S         1/ 3
HARRISON CRIB              49     350/ 13/ 15   N/A
BURNHAM HARBOR             52     360/ 10/ 14   N/A
CALUMET HARBOR             52     360/ 11/ 13   N/A
BURNS HARBOR                       30/ 13/ 17 1023.0F
MICHIGAN CITY              48     360/ 13/ 15   N/A
MICHIGAN CITY 6N           48 54   30/ 10/ 14   N/A           2/ 3
ST. JOSEPH                 52 55   30/ 16/ 17   N/A           4/ 4
$$

ILZ025>027-034>036-040-047-049-050-058-095>099-020100-
WEST-CENTRAL ILLINOIS

CITY           SKY/WX    TMP DP  RH WIND       PRES   REMARKS
QUINCY         CLOUDY    64  53  67 E7        30.15S
$$

ILZ028>032-037-038-041>044-048-051>054-059>061-020100-
CENTRAL ILLINOIS

CITY           SKY/WX    TMP DP  RH WIND       PRES   REMARKS
DECATUR        CLOUDY    65  56  72 NE13      30.14R
PEORIA         PTSUNNY   67  54  63 SE5       30.16S
6HR MIN TEMP:  65; 6HR MAX TEMP:  68;

SPRINGFIELD    CLOUDY    67  55  65 NE9       30.15R
6HR MIN TEMP:  64; 6HR MAX TEMP:  68;

TAYLORVILLE    NOT AVBL
$$

ILZ033-039-045-046-055>057-062-063-020100-
EAST-CENTRAL ILLINOIS

CITY           SKY/WX    TMP DP  RH WIND       PRES   REMARKS
CHAMPAIGN      MOSUNNY   64  54  69 NE8       30.14S
MATTOON        PTSUNNY   65  54  67 E7        30.12S
$$

ILZ079-100>102-020100-
SOUTHWEST ILLINOIS

CITY           SKY/WX    TMP DP  RH WIND       PRES   REMARKS
BELLEVILLE     PTSUNNY   64  58  81 N3        30.11S
CAHOKIA*       CLOUDY    65  56  72 NE6       30.12F
$$

ILZ064>066-069>071-074>076-080>082-084>086-088>090-092>094-020100-
SOUTH-CENTRAL ILLINOIS

CITY           SKY/WX    TMP DP  RH WIND       PRES   REMARKS
CARBONDALE     CLOUDY    62  55  77 NE5       30.12R
6HR MIN TEMP:  62; 6HR MAX TEMP:  64;

MT. VERNON     CLOUDY    61  52  72 NE5       30.13S
$$

ILZ067-068-072-073-078-083-087-091-020100-
SOUTHEAST ILLINOIS

CITY           SKY/WX    TMP DP  RH WIND       PRES   REMARKS
LAWRENCEVILLE  CLOUDY    61  54  77 NE8       30.13R
$$

ABBREVIATIONS USED IN REMARKS
   TC - TEMPERATURE IN CELSIUS
  WCI - WIND CHILL INDEX
   HX - HEAT INDEX
  VSB - VISIBILITY
$$




USA.gov is the U.S. government's official web portal to all federal, state and local government web resources and services.